Location: Arbon
(43.0005°N, 0.7472°E)
Time: 11:17:59
(UTC+00:00)

CBERS 1 LM4 rocket - Pass Details

Date: 22 April 2026
Orbit: 696 x 832 km, 98.7° (Epoch: 15 May)

Event Time Altitude Azimuth Distance (km) Brightness Sun altitude
Exits shadow 20:10:03 15° 161° (SSE) 1,835 6.0 -14.4°
Maximum altitude 20:13:58 83° 76° (ENE) 712 4.2 -15.0°
Drops below altitude 10° 20:18:46 10° 348° (NNW) 2,198 7.6 -15.7°
Sets 20:21:04 0° 347° (NNW) 3,137 8.4 -16.1°
